CW1334 Weather Reports


Display with metric or nautical units.
time (UTC)temp
F
wind
direction
speed
MPH
gust
MPH
rain 1hr
in
rain 24hr
in
rain mn
in
humidity
%
barometer
mb
20260506061554 25 350 4.0 6.0 0.00 0.00 0.00 57 1018.5
20260506044553 32 24 2.0 4.0 0.00 0.00 0.00 48 1018.7
20260506043053 33 24 3.0 4.0 0.00 0.00 0.00 47 1018.7
20260506041551 34 0 1.0 3.0 0.00 0.00 0.00 45 1018.9
20260506040055 35 24 1.0 3.0 0.00 0.00 0.00 43 1018.9
20260506034612 36 24 1.0 2.0 0.00 0.00 0.00 41 1018.8
20260506033058 38 24 0.0 5.0 0.00 0.00 0.00 42 1018.7
20260506031601 40 24 3.0 8.0 0.00 0.00 0.00 38 1018.7
20260506030057 41 75 3.0 9.0 0.00 0.00 0.00 37 1018.6
20260506024555 43 55 3.0 10.0 0.00 0.00 0.00 36 1018.6
20260506023058 44 30 6.0 16.0 0.00 0.00 0.00 35 1018.5
20260506021553 45 46 8.0 13.0 0.00 0.00 0.00 34 1018.5
20260506020057 45 17 8.0 17.0 0.00 0.00 0.00 33 1018.5
20260506014553 46 355 8.0 16.0 0.00 0.00 0.00 33 1018.3
20260506013107 46 49 10.0 16.0 0.00 0.00 0.00 33 1018.2
20260506011559 47 350 11.0 18.0 0.00 0.00 0.00 31 1018.0
20260506010117 47 341 7.0 22.0 0.00 0.00 0.00 31 1018.1
20260506004551 47 40 10.0 20.0 0.00 0.00 0.00 32 1018.0
20260506003052 47 5 9.0 18.0 0.00 0.00 0.00 32 1017.9
20260506001600 46 334 9.0 19.0 0.00 0.00 0.00 31 1018.0
20260506000055 48 338 10.0 18.0 0.00 0.00 0.00 33 1018.0
20260505234553 48 352 11.0 19.0 0.00 0.00 0.00 32 1018.1
20260505233104 47 325 11.0 19.0 0.00 0.00 0.00 32 1018.1
20260505231552 48 360 13.0 21.0 0.00 0.00 0.00 32 1017.9
20260505230058 48 11 10.0 22.0 0.00 0.00 0.00 31 1017.7
20260505224555 48 338 11.0 23.0 0.00 0.00 0.00 31 1017.8
20260505223058 49 360 9.0 18.0 0.00 0.00 0.00 31 1018.0
20260505221600 48 300 9.0 22.0 0.00 0.00 0.00 32 1018.1
20260505220056 47 346 12.0 20.0 0.00 0.00 0.00 33 1018.0
20260505214619 48 349 9.0 21.0 0.00 0.00 0.00 32 1018.0
20260505213114 48 9 8.0 22.0 0.00 0.00 0.00 34 1017.9
20260505211555 47 350 10.0 26.0 0.00 0.00 0.00 35 1018.2
20260505210055 48 355 12.0 26.0 0.00 0.00 0.00 33 1018.2
20260505204554 47 352 13.0 27.0 0.00 0.00 0.00 35 1018.3
20260505203054 46 11 11.0 22.0 0.00 0.00 0.00 35 1018.3
20260505201558 47 311 11.0 21.0 0.00 0.00 0.00 35 1018.4
20260505200055 46 342 11.0 20.0 0.00 0.00 0.00 36 1018.5
20260505194553 46 51 11.0 18.0 0.00 0.00 0.00 36 1018.5
20260505193054 47 249 8.0 20.0 0.00 0.00 0.00 36 1018.3
20260505191604 46 307 10.0 18.0 0.00 0.00 0.00 36 1018.6
20260505190100 46 5 10.0 18.0 0.00 0.00 0.00 37 1018.6
20260505184556 46 303 9.0 21.0 0.00 0.00 0.00 37 1018.6
20260505183113 46 355 10.0 19.0 0.00 0.00 0.00 38 1018.5
20260505181553 45 284 12.0 22.0 0.00 0.00 0.00 40 1018.5
20260505180051 45 313 11.0 20.0 0.00 0.00 0.00 40 1018.5
20260505174552 45 334 7.0 21.0 0.00 0.00 0.00 42 1018.5
20260505173054 44 313 9.0 22.0 0.00 0.00 0.00 42 1018.6
20260505171601 43 10 12.0 18.0 0.00 0.00 0.00 44 1018.9
20260505170055 43 304 9.0 19.0 0.00 0.00 0.00 47 1018.8
20260505164554 42 331 10.0 16.0 0.00 0.00 0.00 49 1018.9
20260505163056 41 346 8.0 14.0 0.00 0.00 0.00 51 1018.9
20260505161626 41 306 8.0 15.0 0.00 0.00 0.00 55 1019.0
20260505160105 40 325 7.0 14.0 0.00 0.00 0.00 57 1019.0
20260505153055 40 355 6.0 13.0 0.00 0.00 0.00 60 1019.1
20260505151611 41 313 6.0 12.0 0.00 0.00 0.00 59 1019.2
20260505130110 35 275 1.0 6.0 0.00 0.00 0.00 70 1018.6
20260505124608 34 275 3.0 9.0 0.00 0.00 0.00 70 1018.6
20260505123107 34 203 2.0 5.0 0.00 0.00 0.00 68 1018.3
20260505121556 34 324 3.0 9.0 0.00 0.00 0.00 66 1018.2
20260505120111 35 315 5.0 9.0 0.00 0.00 0.00 65 1018.2
20260505114555 35 316 3.0 9.0 0.00 0.00 0.00 63 1018.1
20260505113055 36 328 4.0 7.0 0.00 0.00 0.00 61 1018.1
20260505111553 37 338 4.0 9.0 0.00 0.00 0.00 59 1018.2
20260505101557 37 32 1.0 3.0 0.00 0.00 0.00 57 1017.8
20260505094559 37 32 1.0 3.0 0.00 0.00 0.00 57 1017.6
20260505093057 37 32 2.0 6.0 0.00 0.00 0.00 57 1017.7
20260505091556 37 32 4.0 8.0 0.00 0.00 0.00 57 1017.5
20260505090052 38 11 4.0 6.0 0.00 0.00 0.00 55 1017.6
20260505084553 39 26 3.0 6.0 0.00 0.00 0.00 54 1017.6
20260505083057 40 25 3.0 6.0 0.00 0.00 0.00 54 1017.7
20260505081551 39 348 3.0 5.0 0.00 0.00 0.00 55 1017.5
20260505080057 39 40 3.0 6.0 0.00 0.00 0.00 55 1017.3
20260505074559 39 333 2.0 8.0 0.00 0.00 0.00 54 1017.3
20260505073104 39 340 2.0 6.0 0.00 0.00 0.00 53 1017.5
20260505071601 38 335 3.0 6.0 0.00 0.00 0.00 53 1017.4
20260505070056 37 31 2.0 5.0 0.00 0.00 0.00 54 1017.4
20260505064558 37 31 3.0 5.0 0.00 0.00 0.00 53 1017.5